Location: Althorst
(53.6379°N, 10.7715°E)
Time: 13:55:35
(UTC+00:00)

Cosmos 407 Rocket - Pass Details

Date: 10 December 2019
Orbit: 743 x 787 km, 74.0° (Epoch: 23 January)

Event Time Altitude Azimuth Distance (km) Brightness Sun altitude
Rises 17:47:56 0° 195° (SSW) 3,198 7.0 -23.9°
Reaches altitude 10° 17:50:17 10° 193° (SSW) 2,284 6.2 -24.2°
Enters shadow 17:55:05 65° 136° (SE) 843 3.4 -24.9°
